TimeEST,TemperatureF,Dew PointF,Humidity,Sea Level PressureIn,VisibilityMPH,Wind Direction,Wind SpeedMPH,Gust SpeedMPH,PrecipitationIn,Events,Conditions,WindDirDegrees,DateUTC
12:53 AM,73.0,61.0,66,30.16,10.0,ENE,11.5,-,N/A,,Overcast,60,2012-11-30 05:53:00
1:53 AM,73.0,61.0,66,30.15,10.0,ENE,11.5,-,N/A,,Overcast,60,2012-11-30 06:53:00
2:53 AM,72.0,61.0,68,30.14,10.0,ENE,12.7,-,N/A,,Overcast,60,2012-11-30 07:53:00
3:53 AM,70.0,64.9,84,30.15,6.0,East,19.6,27.6,0.03,Rain,Rain,80,2012-11-30 08:53:00
4:39 AM,69.8,66.2,88,30.14,3.0,East,16.1,-,0.19,Rain,Heavy Rain,80,2012-11-30 09:39:00
4:46 AM,68.0,66.2,94,30.14,2.5,NE,12.7,-,0.27,Rain,Heavy Rain,50,2012-11-30 09:46:00
4:53 AM,68.0,66.9,96,30.14,5.0,NE,11.5,-,0.28,Rain,Light Rain,40,2012-11-30 09:53:00
5:50 AM,68.0,66.2,94,30.15,4.0,NNE,8.1,-,0.10,Rain,Rain,20,2012-11-30 10:50:00
5:53 AM,68.0,66.9,96,30.15,5.0,NNE,8.1,-,0.10,Rain,Light Rain,30,2012-11-30 10:53:00
6:53 AM,69.1,66.0,90,30.17,10.0,NE,6.9,-,0.00,Rain,Light Rain,50,2012-11-30 11:53:00
7:53 AM,70.0,66.0,87,30.18,10.0,NE,4.6,-,0.00,,Overcast,50,2012-11-30 12:53:00
8:53 AM,72.0,66.9,84,30.20,10.0,NE,8.1,-,N/A,,Overcast,40,2012-11-30 13:53:00
9:53 AM,71.1,66.0,84,30.21,10.0,NE,10.4,-,N/A,,Overcast,40,2012-11-30 14:53:00
10:53 AM,71.1,64.0,78,30.21,10.0,NE,10.4,-,0.00,,Overcast,40,2012-11-30 15:53:00
11:53 AM,73.9,61.0,64,30.18,10.0,ENE,15.0,-,N/A,,Overcast,70,2012-11-30 16:53:00
12:53 PM,75.9,59.0,56,30.15,10.0,ENE,21.9,27.6,N/A,,Mostly Cloudy,70,2012-11-30 17:53:00
1:53 PM,75.9,59.0,56,30.13,10.0,ENE,20.7,26.5,N/A,,Partly Cloudy,70,2012-11-30 18:53:00
2:53 PM,75.9,57.9,54,30.13,10.0,East,18.4,-,N/A,,Clear,80,2012-11-30 19:53:00
3:53 PM,73.9,59.0,59,30.13,10.0,East,17.3,23.0,N/A,,Clear,80,2012-11-30 20:53:00
4:53 PM,73.0,60.1,64,30.14,10.0,East,10.4,-,N/A,,Clear,80,2012-11-30 21:53:00
5:53 PM,72.0,60.1,66,30.13,10.0,East,8.1,-,N/A,,Clear,80,2012-11-30 22:53:00
6:53 PM,71.6,60.8,69,30.14,10.0,ENE,6.9,-,N/A,,Mostly Cloudy,70,2012-11-30 23:53:00
7:53 PM,71.6,60.8,69,30.14,10.0,East,6.9,-,N/A,,Mostly Cloudy,80,2012-12-01 00:53:00
8:53 PM,-9999,-9999,N/A,30.16,10.0,ENE,6.9,-,N/A,,Partly Cloudy,70,2012-12-01 01:53:00
9:53 PM,-9999,-9999,N/A,30.16,10.0,NE,6.9,-,N/A,,Overcast,40,2012-12-01 02:53:00
10:53 PM,71.1,64.9,81,30.15,10.0,NNE,5.8,-,N/A,,Overcast,20,2012-12-01 03:53:00
11:53 PM,70.0,64.9,84,30.14,10.0,NNE,11.5,-,N/A,,Partly Cloudy,20,2012-12-01 04:53:00